カタログに戻る

SATCOM 3 DEB

LostHEO
NORAD 49959·DEBRIS·🇺🇸 United States

打ち上げ Dec 7, 1979 から Cape Canaveral Space Force Station

Loading…

次のパス (今後24時間)

TLE

古いSource: Space-Track

元期: Apr 1, 2026, 11:27 UTC

1 49959U 79101AD  26091.47745580 -.00000104  00000-0  00000-0 0  9998
2 49959   7.2251 129.0927 4758063  25.3419  16.3023  1.80715817 81688

AllMySatでSATCOM 3 DEBをリアルタイム追跡

Download on the App Store